Starlink 5085

operational
NORAD ID: 55392 Int'l Des: 2023-014 Owner: SPXS Country: US Constellation: starlink
LEOCIRCULAR

关于 Starlink 5085

正在加载描述...

实时位置

正在加载3D地球...

即将过境

高度历史

Altitude vs Time

uPlot chart will show altitude changes over time

两行轨道根数

1 55392U 23014B 25302.92200003 .00000036 00000-0 10811-4 0 9996
2 55392 69.9999 14.0614 0003562 263.5160 96.5594 14.98339210152963
Epoch: Oct 29, 2025 • Age: 8 hours

当前状态

高度 578.2 km
速度 7.57 km/s
星下点 -18.72°S, 123.39°W
发射日期 Jan 31, 2023
运行时间 2.7 years
类型 internet

技术详情

分类 Payload
质量 305.00 kg
干质量 290.00 kg
总质量 305.00 kg
长度 0.20 m
直径 2.80 m
跨度 9.00 m
形状 Box + pan
制造商 SPXS
平台类型 Starlink
阶段状态 In Orbit
所有者/国家 SPXS/US

大型星座

Loading constellations...